GW4516 Weather Reports


time (UTC)temp
C
wind
direction
speed
KPH
gust
KPH
rain 1hr
cm
rain 24hr
cm
rain mn
cm
humidity
%
barometer
mb
20260504130529 13 233 3.2 6.4 0.00 0.00 0.00 56 1006.6
20260504081928 10 157 0.0 1.6 0.00 0.00 0.00 57 1008.4
20260504080928 10 215 1.6 6.4 0.00 0.00 0.00 57 1008.7
20260504045033 11 157 0.0 0.0 0.00 0.00 0.00 50 1011.2
20260504044032 11 157 0.0 0.0 0.00 0.00 0.00 49 1011.5
20260504043033 12 157 0.0 0.0 0.00 0.00 0.00 48 1011.5
20260504042131 12 157 0.0 0.0 0.00 0.00 0.00 46 1011.7
20260504041132 13 157 0.0 0.0 0.00 0.00 0.00 46 1011.6
20260504040231 13 247 0.0 0.0 0.00 0.00 0.00 45 1011.7
20260504034334 13 202 0.0 0.0 0.00 0.00 0.00 45 1012.0
20260504033431 13 157 0.0 0.0 0.00 0.00 0.00 45 1012.0
20260504033332 13 157 0.0 0.0 0.00 0.00 0.00 45 1012.1
20260504032330 13 247 0.0 0.0 0.00 0.00 0.00 43 1012.1
20260504031332 13 247 0.0 0.0 0.00 0.00 0.00 42 1012.3
20260504030431 14 247 0.0 0.0 0.00 0.00 0.00 41 1012.3
20260504025433 14 247 0.0 0.0 0.00 0.00 0.00 40 1012.4
20260504024532 14 247 0.0 0.0 0.00 0.00 0.00 40 1012.4
20260504023534 15 247 0.0 0.0 0.00 0.00 0.00 39 1012.4
20260504022533 15 247 0.0 0.0 0.00 0.00 0.00 37 1012.3
20260504021631 16 247 0.0 0.0 0.00 0.00 0.00 36 1012.3
20260504020633 16 247 0.0 0.0 0.00 0.00 0.00 35 1012.3
20260504015632 17 247 0.0 0.0 0.00 0.00 0.00 34 1012.2
20260504013631 18 247 0.0 0.0 0.00 0.00 0.00 32 1012.0
20260504012631 18 247 0.0 0.0 0.00 0.00 0.00 31 1012.0
20260504011632 19 247 0.0 1.6 0.00 0.00 0.00 29 1011.9
20260504010633 20 268 1.6 3.2 0.00 0.00 0.00 29 1011.9
20260504005730 20 270 0.0 0.0 0.00 0.00 0.00 28 1011.9
20260504004733 21 270 0.0 0.0 0.00 0.00 0.00 27 1011.8
20260504002832 22 292 1.6 3.2 0.00 0.00 0.00 25 1011.9
20260504001833 22 275 1.6 6.4 0.00 0.00 0.00 25 1011.8
20260503235932 22 281 3.2 6.4 0.00 0.00 0.00 25 1011.9
20260503235832 22 257 3.2 8.0 0.00 0.00 0.00 25 1011.9
20260503233833 22 346 1.6 6.4 0.00 0.00 0.00 25 1012.1
20260503232830 22 288 1.6 4.8 0.00 0.00 0.00 25 1012.2
20260503231830 22 286 3.2 6.4 0.00 0.00 0.00 25 1012.4
20260503230833 22 289 6.4 16.1 0.00 0.00 0.00 25 1012.3
20260503224930 22 310 1.6 3.2 0.00 0.00 0.00 25 1012.4
20260503223931 22 320 1.6 3.2 0.00 0.00 0.00 24 1012.4
20260503222932 22 267 9.7 14.5 0.00 0.00 0.00 24 1012.5
20260503221932 22 287 8.0 17.7 0.00 0.00 0.00 25 1012.4
20260503220931 22 301 4.8 8.0 0.00 0.00 0.00 25 1012.6
20260503215932 22 303 3.2 6.4 0.00 0.00 0.00 25 1012.5
20260503214932 22 269 3.2 9.7 0.00 0.00 0.00 24 1012.7
20260503213931 22 351 1.6 11.3 0.00 0.00 0.00 23 1012.6
20260503212931 22 269 6.4 9.7 0.00 0.00 0.00 22 1012.6
20260503211931 22 304 3.2 14.5 0.00 0.00 0.00 21 1012.7
20260503210931 23 360 3.2 8.0 0.00 0.00 0.00 23 1012.6
20260503210831 23 294 4.8 11.3 0.00 0.00 0.00 23 1012.5
20260503205833 23 193 3.2 8.0 0.00 0.00 0.00 24 1012.8
20260503203931 23 304 3.2 6.4 0.00 0.00 0.00 23 1012.9
20260503202933 23 347 6.4 16.1 0.00 0.00 0.00 25 1012.9
20260503202032 22 294 3.2 6.4 0.00 0.00 0.00 23 1013.1
20260503201031 22 295 4.8 11.3 0.00 0.00 0.00 25 1013.3
20260503200130 22 273 6.4 12.9 0.00 0.00 0.00 24 1013.3
20260503194133 22 334 3.2 8.0 0.00 0.00 0.00 23 1013.3
20260503193132 22 24 3.2 8.0 0.00 0.00 0.00 25 1013.3
20260503192230 23 335 4.8 12.9 0.00 0.00 0.00 24 1013.3
20260503191233 23 318 4.8 12.9 0.00 0.00 0.00 25 1013.4
20260503190231 22 340 3.2 14.5 0.00 0.00 0.00 26 1013.4
20260503183333 22 15 4.8 8.0 0.00 0.00 0.00 27 1013.6
20260503182430 21 306 4.8 12.9 0.00 0.00 0.00 27 1013.5
20260503181432 22 354 8.0 29.0 0.00 0.00 0.00 28 1013.6
20260503180530 22 356 8.0 22.5 0.00 0.00 0.00 29 1013.5
20260503175532 21 286 8.0 16.1 0.00 0.00 0.00 28 1013.7
20260503174631 21 348 3.2 6.4 0.00 0.00 0.00 29 1013.7
20260503173634 21 294 9.7 17.7 0.00 0.00 0.00 29 1013.7
20260503172731 21 306 8.0 19.3 0.00 0.00 0.00 29 1013.8
20260503170732 21 314 9.7 17.7 0.00 0.00 0.00 31 1013.8
20260503140132 15 301 4.8 16.1 0.00 0.00 0.00 44 1013.5